Location: Beuvrequen
(50.8014°N, 1.6652°E)
Time: 03:26:48
(UTC+00:00)

Cosmos 1455 Rocket - Pass Details

Date: 16 October 2021
Orbit: 604 x 630 km, 82.5° (Epoch: 05 December)

Event Time Altitude Azimuth Distance (km) Brightness Sun altitude
Rises 18:08:27 0° 168° (SSE) 2,881 6.4 -11.8°
Reaches altitude 10° 18:10:45 10° 160° (SSE) 1,985 5.5 -12.1°
Maximum altitude 18:14:50 39° 92° (E) 940 3.5 -12.8°
Drops below altitude 10° 18:18:59 10° 24° (NNE) 2,014 5.5 -13.4°
Sets 18:21:20 0° 17° (NNE) 2,930 6.4 -13.8°
